Погода в Осове

Украина / Ровненская область     51°05′14″N   25°58′40″E
темп.,
°C
ветер,
м/с
пор.,
м/с
влажн.,
%
обл.,
%
осадки,
мм/ч
давл.,
гПа
погр.,
м
27 ноября, сб
сб2723:00+6юв61381100 0.0 996890
02:00+7ю61386100 2.3 992756
05:00+5ююз4988100 0.1 991397
08:00+6ююз51185100 0.5 992660
11:00+5юз8147458 0.0 995878
14:00+4зюз7117196 0.0 997990
17:00+4зюз510725 0.0 999708
20:00+1зюз25865 0.0 100189
28 ноября, вс
вс2823:00+1ююз228941 0.0 100222
02:00+1ю339195 0.0 100240
05:00+3ююв3683100 0.0 1002147
08:00+4ю3987100 0.1 1001230
11:00+5ююв2396100 3.3 100173
14:00+5вюв3587100 5.1 1000190
17:00+5юв3787100 2.1 998196
20:00+5ююв3690100 2.2 998142
29 ноября, пн
пн2923:00+4юв3690100 0.0 996108
02:00+4юв4987100 0.0 994144
05:00+4юв41089100 0.0 991174
08:00+5юв4894100 0.1 990183
11:00+5зюз6993100 1.3 989668
14:00+2з91480100 2.1 991870
17:00+1з81482100 0.0 9931100
20:00+1зюз81591100 0.1 9941308
30 ноября, вт
вт3023:00+2з91678100 0.1 9941347
02:00+1з111776100 0.2 9961281
05:000з11188090 0.1 9971010
08:00+1з101679100 0.1 9991187
11:00+1з8137483 0.1 10021203
14:00+2з812675 0.1 10021231
17:00−1з6127465 0.0 1003681
20:00−1зюз61281100 0.0 1003638
1 декабря, ср
ср123:00−1юз51282100 0.0 1002670
02:000юз51280100 0.0 1001789
05:00−1юз61396100 0.9 999766
08:00+1з51096100 1.6 1000688
11:00+1з51097100 0.3 1002544
14:00+1зюз51097100 0.5 1003464
17:00+1зюз51196100 0.3 1004579
20:000ююз41093100 0.3 1003247